[[{"header":{"parameterUnit":"m.s-1","parameterCategory":1,"la1":30.2991,"la2":30.254,"lo1":-89.0895,"lo2":-89.0444,"dy":0.0017,"dx":0.0017,"nx":28,"ny":28,"refTime":"2024-12-11T09:00:00:Z","depth":0,"parameterNumber":2,"parameterNumberName":"U-component_of_WINDS"},"data":[0,0,0,0,0,0,0,0,0,0,0,0,0,0,0,0,0,0,0,0,0,0,0,0,0,0,0,0,0,0,0,0,0,0,0,0,0,0,0,0,0,0,0,0,0,0,0,0,0,0,0,0,0,0,0,0,0,0,-2.4232,-2.4232,0,-2.4224,-2.4224,-2.4224,-2.4168,-2.4167,-2.4166,-2.4164,-2.4159,-2.416,-2.4161,0,0,0,0,0,0,0,0,0,0,0,0,0,-2.4203,-2.4203,-2.4232,-2.4232,-2.4232,-2.4224,-2.4224,-2.4224,-2.4169,-2.4167,-2.4165,-2.4164,-2.4159,-2.416,-2.4161,0,0,0,0,0,0,0,0,0,0,0,0,0,-2.4207,-2.4204,-2.4232,-2.4203,-2.4201,-2.4224,-2.4224,-2.4224,-2.4169,-2.4167,-2.4165,-2.4163,-2.4158,-2.416,-2.4161,-2.4213,0,0,-2.4167,-2.4167,0,0,0,0,0,0,0,0,-2.4207,-2.4208,-2.4208,-2.4205,-2.4202,-2.4195,-2.4211,-2.422,-2.4169,-2.4181,-2.4164,-2.4162,-2.4173,-2.4173,-2.4176,-2.4212,-2.4212,-2.4167,-2.4168,-2.4168,-2.4169,0,0,0,0,0,0,0,-2.4207,-2.4208,-2.4229,-2.4208,-2.4205,-2.4192,-2.419,-2.4213,-2.4189,-2.418,-2.4176,-2.4176,-2.4171,-2.4175,-2.4176,-2.4212,-2.4167,-2.4168,-2.4169,-2.417,-2.4292,-2.4294,0,0,0,0,0,0,-2.421,-2.4208,-2.4229,-2.4229,-2.42,-2.4194,-2.4192,-2.42,-2.4188,-2.4184,-2.4177,-2.4173,-2.4173,-2.4174,-2.4175,-2.4236,-2.4168,-2.417,-2.4171,-2.4289,-2.4292,-2.4294,0,0,0,0,0,0,-2.421,-2.4212,-2.4229,-2.4217,-2.4219,-2.4197,-2.4205,-2.42,-2.4204,-2.4186,-2.4182,-2.4185,-2.4171,-2.4173,-2.4204,-2.4235,-2.4171,-2.4172,-2.4287,-2.429,-2.4293,-2.4356,0,0,0,0,0,0,-2.4209,-2.4213,-2.4231,-2.4218,-2.4219,-2.4258,-2.4207,-2.4202,-2.4207,-2.4201,-2.4193,-2.4189,-2.417,-2.4202,-2.4206,-2.4236,-2.4174,-2.4284,-2.4288,-2.4292,-2.4352,-2.4362,-2.437,0,0,0,0,0,-2.4208,-2.425,-2.4232,-2.4235,-2.4242,-2.4259,-2.426,-2.4236,-2.4209,-2.4229,-2.4217,-2.419,-2.423,-2.4205,-2.4209,-2.4241,-2.4282,-2.4287,-2.4292,-2.4347,-2.436,-2.437,0,0,0,0,0,0,-2.4267,-2.4247,-2.4228,-2.4266,-2.4265,-2.425,-2.4273,-2.425,-2.4257,-2.4251,-2.4222,-2.422,-2.4256,-2.4251,-2.4224,-2.429,-2.4252,-2.4258,-2.4292,-2.4304,-2.4313,-2.4314,-2.4175,0,0,0,0,0,-2.4285,-2.43,-2.4281,-2.4317,-2.4317,-2.4296,-2.4302,-2.4284,-2.4282,-2.4281,-2.4272,-2.4272,-2.4284,-2.4294,-2.4304,-2.435,-2.4348,-2.4374,-2.4383,-2.4391,-2.4397,-2.4422,-2.4434,-2.4311,-2.4311,-2.4311,0,0,-2.4321,-2.4312,-2.4323,-2.4329,-2.4325,-2.4343,-2.4295,-2.4315,-2.4328,-2.4284,-2.4313,-2.4307,-2.4304,-2.4344,-2.436,-2.434,-2.443,-2.4397,-2.4403,-2.4405,-2.4428,-2.444,-2.4451,-2.4314,-2.4314,-2.4313,0,0,-2.4396,-2.439,-2.442,-2.4417,-2.4413,-2.4398,-2.4405,-2.4394,-2.4388,-2.4416,-2.4384,-2.4399,-2.4422,-2.4422,-2.4425,-2.4501,-2.4477,-2.4505,-2.4554,-2.4579,-2.4589,-2.4598,-2.4626,-2.4637,-2.4511,-2.4511,-2.4511,0,-2.4442,-2.4466,-2.4438,-2.446,-2.4465,-2.4424,-2.4455,-2.4454,-2.4454,-2.4459,-2.4436,-2.4464,-2.4459,-2.4499,-2.4517,-2.4521,-2.4529,-2.4507,-2.459,-2.4598,-2.4605,-2.4633,-2.4643,-2.4515,-2.4514,-2.4514,-2.4514,0,-2.4524,-2.4541,-2.4565,-2.4565,-2.4572,-2.4598,-2.4576,-2.4586,-2.4567,-2.4555,-2.4585,-2.4579,-2.4588,-2.4596,-2.4578,-2.4633,-2.4621,-2.4595,-2.4555,-2.4621,-2.4646,-2.4656,-2.452,-2.4519,-2.4518,-2.4517,0,0,-2.4637,-2.4621,-2.4631,-2.4631,-2.4623,-2.4636,-2.4661,-2.467,-2.468,-2.4681,-2.4702,-2.4722,-2.4698,-2.4702,-2.4683,-2.4705,-2.4768,-2.4676,-2.4676,-2.4695,-2.4831,-2.4852,-2.4864,-2.4751,-2.4753,-2.4754,-2.4831,0,-2.471,-2.4751,-2.4727,-2.4772,-2.4789,-2.4751,-2.4773,-2.4772,-2.4761,-2.4774,-2.4763,-2.4779,-2.4744,-2.4747,-2.4766,-2.4756,-2.4795,-2.475,-2.4772,-2.4774,-2.4776,-2.4877,-2.4899,-2.4972,-2.4841,-2.4842,-2.4844,0,-2.4801,-2.4806,-2.4853,-2.4843,-2.4849,-2.4869,-2.4875,-2.4888,-2.4886,-2.4877,-2.4881,-2.4858,-2.4883,-2.4843,-2.4879,-2.4849,-2.4856,-2.4853,-2.4855,-2.4857,-2.4814,-2.4884,-2.4995,-2.5006,-2.4858,-2.4857,-2.4856,0,-2.4881,-2.4899,-2.493,-2.4931,-2.4919,-2.4935,-2.4931,-2.4927,-2.4934,-2.4939,-2.4944,-2.4953,-2.4958,-2.4966,-2.4947,-2.4919,-2.4985,-2.4943,-2.498,-2.4981,-2.4997,-2.4997,-2.5113,-2.5,-2.4999,-2.4999,-2.4999,0,-2.4966,-2.4997,-2.4965,-2.4985,-2.5018,-2.499,-2.5025,-2.5017,-2.5014,-2.5032,-2.4999,-2.5017,-2.4989,-2.5005,-2.4989,-2.5022,-2.5024,-2.5019,-2.5015,-2.5023,-2.5024,-2.5028,-2.5024,-2.5002,-2.5001,-2.5001,-2.5,0,-2.5062,-2.5041,-2.5073,-2.5059,-2.5057,-2.5082,-2.5072,-2.5089,-2.5077,-2.51,-2.5104,-2.5085,-2.5101,-2.5082,-2.5096,-2.5086,-2.5131,-2.5119,-2.5132,-2.5129,-2.5167,-2.5165,-2.5292,-2.5308,-2.5183,-2.5184,-2.5185,0,-2.5118,-2.5141,-2.513,-2.5139,-2.5137,-2.5153,-2.5159,-2.5133,-2.5142,-2.5142,-2.516,-2.5174,-2.5183,-2.5212,-2.52,-2.5211,-2.52,-2.5244,-2.5202,-2.521,-2.5203,-2.5203,-2.5206,-2.5253,-2.5255,-2.5256,-2.5257,0,-2.5222,-2.5211,-2.5221,-2.5229,-2.5238,-2.5243,-2.5245,-2.5255,-2.5228,-2.5239,-2.5255,-2.5263,-2.5278,-2.5293,-2.5301,-2.5298,-2.5274,-2.527,-2.5279,-2.5288,-2.5296,-2.5294,-2.5157,-2.5267,-2.5266,-2.5265,-2.5265,-2.5264,-2.53,-2.5319,-2.5315,-2.5328,-2.5327,-2.533,-2.5347,-2.5336,-2.5349,-2.5359,-2.5342,-2.5363,-2.5362,-2.537,-2.537,-2.5387,-2.5369,-2.5382,-2.5386,-2.539,-2.5397,-2.5292,-2.5389,-2.5388,-2.5388,-2.5388,-2.5387,0,-2.5404,-2.5399,-2.5411,-2.5416,-2.5427,-2.5401,-2.5403,-2.5414,-2.5432,-2.5432,-2.5442,-2.5462,-2.5476,-2.5465,-2.5477,-2.5493,-2.5482,-2.5497,-2.5497,-2.5497,-2.5411,-2.5403,-2.5506,-2.5506,-2.5506,-2.5506,-2.5506,-2.5506,-2.5459,-2.549,-2.5478,-2.5509,-2.5504,-2.5524,-2.5527,-2.5531,-2.5531,-2.5553,-2.5565,-2.5557,-2.5553,-2.5565,-2.5578,-2.5574,-2.5581,-2.56,-2.5593,-2.5514,-2.5503,-2.5492,-2.5483,-2.5602,-2.5602,-2.5678,-2.5678,-2.5679]},{"header":{"parameterUnit":"m.s-1","parameterCategory":1,"la1":30.2991,"la2":30.254,"lo1":-89.0895,"lo2":-89.0444,"dy":0.0017,"dx":0.0017,"nx":28,"ny":28,"refTime":"2024-12-11T09:00:00:Z","depth":0,"parameterNumber":3,"parameterNumberName":"V-component_of_WINDS"},"data":[0,0,0,0,0,0,0,0,0,0,0,0,0,0,0,0,0,0,0,0,0,0,0,0,0,0,0,0,0,0,0,0,0,0,0,0,0,0,0,0,0,0,0,0,0,0,0,0,0,0,0,0,0,0,0,0,0,0,-1.7389,-1.7389,0,-1.742,-1.7421,-1.7421,-1.7406,-1.7405,-1.7404,-1.7403,-1.7434,-1.7436,-1.7437,0,0,0,0,0,0,0,0,0,0,0,0,0,-1.7315,-1.7316,-1.7389,-1.7389,-1.739,-1.742,-1.7421,-1.7421,-1.7406,-1.7405,-1.7404,-1.7403,-1.7434,-1.7436,-1.7438,0,0,0,0,0,0,0,0,0,0,0,0,0,-1.7346,-1.7317,-1.7389,-1.7386,-1.7386,-1.742,-1.7421,-1.7421,-1.7406,-1.7405,-1.7404,-1.7402,-1.7433,-1.7436,-1.7438,-1.7477,0,0,-1.7445,-1.7446,0,0,0,0,0,0,0,0,-1.7345,-1.7349,-1.7386,-1.7386,-1.7386,-1.7408,-1.7406,-1.744,-1.7406,-1.7398,-1.7403,-1.7402,-1.7426,-1.7429,-1.7438,-1.7478,-1.748,-1.7445,-1.7447,-1.7448,-1.7448,0,0,0,0,0,0,0,-1.7343,-1.7348,-1.7401,-1.7386,-1.7387,-1.7382,-1.7386,-1.7412,-1.7419,-1.7399,-1.7398,-1.7402,-1.7426,-1.7436,-1.7438,-1.748,-1.7445,-1.7447,-1.7449,-1.745,-1.7554,-1.7556,0,0,0,0,0,0,-1.7341,-1.7346,-1.74,-1.7402,-1.7362,-1.7385,-1.7388,-1.7402,-1.7418,-1.742,-1.7403,-1.7401,-1.7432,-1.7436,-1.7439,-1.7487,-1.7448,-1.745,-1.7451,-1.7553,-1.7555,-1.7556,0,0,0,0,0,0,-1.7339,-1.7346,-1.7399,-1.7374,-1.738,-1.7387,-1.7403,-1.7403,-1.7413,-1.7421,-1.7422,-1.7411,-1.7431,-1.7436,-1.7468,-1.7488,-1.7451,-1.7453,-1.7551,-1.7553,-1.7555,-1.7582,0,0,0,0,0,0,-1.7337,-1.7345,-1.736,-1.7374,-1.7382,-1.7428,-1.7404,-1.7405,-1.7417,-1.7415,-1.743,-1.7431,-1.7431,-1.7464,-1.747,-1.749,-1.7455,-1.755,-1.7552,-1.7555,-1.7579,-1.7584,-1.7589,0,0,0,0,0,-1.7334,-1.7366,-1.7361,-1.7368,-1.7401,-1.7429,-1.7433,-1.7432,-1.7419,-1.7434,-1.7439,-1.743,-1.7484,-1.7468,-1.7474,-1.7495,-1.7548,-1.7552,-1.7554,-1.7577,-1.7583,-1.7589,0,0,0,0,0,0,-1.7354,-1.7368,-1.7363,-1.74,-1.7413,-1.7426,-1.7445,-1.7439,-1.7456,-1.7454,-1.7452,-1.7455,-1.7488,-1.7495,-1.7476,-1.7534,-1.7514,-1.7519,-1.7529,-1.7535,-1.754,-1.7538,-1.7457,0,0,0,0,0,-1.7363,-1.7384,-1.7395,-1.7427,-1.7434,-1.7439,-1.745,-1.7449,-1.7462,-1.7468,-1.7476,-1.7489,-1.7509,-1.7522,-1.7541,-1.7579,-1.7583,-1.7597,-1.7602,-1.7606,-1.761,-1.7632,-1.7638,-1.7566,-1.7566,-1.7566,0,0,-1.7381,-1.7391,-1.7405,-1.7431,-1.7442,-1.7464,-1.7443,-1.7468,-1.7484,-1.7471,-1.7502,-1.7508,-1.7523,-1.7558,-1.7574,-1.7565,-1.7631,-1.761,-1.7613,-1.7615,-1.7635,-1.7642,-1.7648,-1.7568,-1.7568,-1.7567,0,0,-1.7426,-1.7436,-1.7464,-1.7474,-1.749,-1.7493,-1.7499,-1.7513,-1.7517,-1.7548,-1.7539,-1.7558,-1.7592,-1.7603,-1.7613,-1.7661,-1.7654,-1.7667,-1.7693,-1.7714,-1.772,-1.7725,-1.7744,-1.775,-1.7671,-1.7671,-1.7671,0,-1.7447,-1.7481,-1.7479,-1.7504,-1.7516,-1.7506,-1.7534,-1.7544,-1.7565,-1.7573,-1.7562,-1.7605,-1.7614,-1.7652,-1.7664,-1.7672,-1.768,-1.7666,-1.7719,-1.7724,-1.7729,-1.7747,-1.7753,-1.7673,-1.7673,-1.7672,-1.7672,0,-1.7506,-1.7529,-1.755,-1.7571,-1.7585,-1.7612,-1.7614,-1.7628,-1.7625,-1.7628,-1.766,-1.767,-1.7691,-1.7699,-1.7696,-1.7737,-1.7731,-1.7719,-1.77,-1.7738,-1.7754,-1.7761,-1.7675,-1.7675,-1.7674,-1.7674,0,0,-1.7566,-1.7585,-1.7593,-1.7603,-1.7619,-1.7637,-1.7662,-1.7683,-1.7696,-1.771,-1.7732,-1.7761,-1.775,-1.7762,-1.7759,-1.7778,-1.7817,-1.7764,-1.7764,-1.7774,-1.7863,-1.7873,-1.7881,-1.7811,-1.7812,-1.7813,-1.7862,0,-1.7613,-1.766,-1.7658,-1.7701,-1.7723,-1.7713,-1.7735,-1.7747,-1.7751,-1.777,-1.7774,-1.7795,-1.7779,-1.7786,-1.7803,-1.7808,-1.7835,-1.7804,-1.7832,-1.7833,-1.783,-1.7889,-1.79,-1.7946,-1.7869,-1.787,-1.7871,0,-1.7675,-1.7692,-1.7737,-1.7751,-1.776,-1.778,-1.7799,-1.7817,-1.783,-1.7831,-1.7844,-1.7839,-1.7865,-1.7843,-1.7879,-1.7859,-1.7869,-1.7873,-1.7875,-1.7879,-1.7855,-1.7896,-1.796,-1.7968,-1.788,-1.788,-1.7879,0,-1.7716,-1.775,-1.7781,-1.779,-1.7805,-1.782,-1.7827,-1.7839,-1.7852,-1.7868,-1.7876,-1.7895,-1.7905,-1.792,-1.792,-1.7904,-1.7956,-1.7935,-1.7959,-1.7959,-1.7972,-1.7972,-1.8041,-1.7976,-1.7976,-1.7976,-1.7976,0,-1.777,-1.7798,-1.78,-1.782,-1.7851,-1.7849,-1.788,-1.7886,-1.7896,-1.7917,-1.7908,-1.7927,-1.7925,-1.7944,-1.7944,-1.7974,-1.7979,-1.7981,-1.7981,-1.7983,-1.7983,-1.7991,-1.7989,-1.7978,-1.7977,-1.7977,-1.7977,0,-1.7822,-1.7824,-1.7858,-1.787,-1.7874,-1.7896,-1.7906,-1.7925,-1.7927,-1.7953,-1.7959,-1.7963,-1.7986,-1.7986,-1.8012,-1.8011,-1.8049,-1.8044,-1.8045,-1.8045,-1.8069,-1.8068,-1.8148,-1.8159,-1.8086,-1.8086,-1.8087,0,-1.7857,-1.7879,-1.7893,-1.7906,-1.7914,-1.7936,-1.7949,-1.7947,-1.796,-1.7977,-1.7994,-1.8015,-1.8032,-1.8068,-1.8073,-1.8092,-1.8089,-1.8116,-1.8092,-1.8093,-1.8091,-1.8091,-1.8093,-1.8121,-1.8122,-1.8122,-1.8123,0,-1.7919,-1.7919,-1.7939,-1.7958,-1.7974,-1.7989,-1.8003,-1.8015,-1.8014,-1.803,-1.8053,-1.8066,-1.8092,-1.8113,-1.8132,-1.8139,-1.8131,-1.813,-1.8137,-1.814,-1.814,-1.8142,-1.8059,-1.8129,-1.8128,-1.8128,-1.8127,-1.8127,-1.7965,-1.7984,-1.7997,-1.8019,-1.8029,-1.8043,-1.8061,-1.8066,-1.8085,-1.8107,-1.8104,-1.8129,-1.8142,-1.8166,-1.8174,-1.8194,-1.8185,-1.8194,-1.8197,-1.82,-1.8204,-1.8135,-1.8197,-1.8197,-1.8197,-1.8196,-1.8196,0,-1.8028,-1.8036,-1.8056,-1.8077,-1.8094,-1.8084,-1.8099,-1.8114,-1.8137,-1.8149,-1.8166,-1.8193,-1.8213,-1.822,-1.824,-1.8254,-1.8251,-1.826,-1.8259,-1.8261,-1.821,-1.8203,-1.8262,-1.8262,-1.8262,-1.8262,-1.8262,-1.8262,-1.8063,-1.8096,-1.8097,-1.8134,-1.8142,-1.8167,-1.8177,-1.8189,-1.8199,-1.8229,-1.8246,-1.825,-1.826,-1.8281,-1.8299,-1.83,-1.8309,-1.8319,-1.8319,-1.8271,-1.8265,-1.8259,-1.8252,-1.832,-1.8321,-1.8369,-1.8369,-1.837]}]]